Tracking 35019 objects as of 13-Aug-2026
HD Live streaming from Space Station
objects crossing your sky now

GALILEO 22 (2C8)

Track GALILEO 22 (2C8) now!
GALILEO 22 (2C8) is classified as:


NORAD ID: 43058
Int'l Code: 2017-079D
Launch date: December 12, 2017
Source: European Space Agency (ESA)
Launch site: FRENCH GUIANA (FRGUI)
Your satellite tracking list
Your tracking list is empty




NASA's NSSDC Master Catalog

Two Line Element Set (TLE):
1 43058U 17079D   26216.26058223  .00000082  00000-0  00000-0 0  9999
2 43058  55.0625 220.1786 0005475 276.8699  83.0848  1.70474225 53831
Source of the keplerian elements: AFSPC